FENGYUN 1C DEB

Satellite information

Favourite Embed

Satellite Type and Status

DEBRISIN ORBIT

Key statistics

Satellite FENGYUN 1C DEB at a glance.

Uptime

9609

Days in orbit

Revolutions

≈ 14.3

Per day

Orbit

SSO

Sun Synchronous Orbit

Inclination

99.2

Latest

Satellite identification and parameters

Extended collection of information and parameters for FENGYUN 1C DEB.

Object identification

Identified? True

Debris? True

Object name: FENGYUN 1C DEB

International designator: 1999-025GN

Object number (NORAD): 29892

Object ID (CCSDS): 29892

Country: PEOPLES REPUBLIC OF CHINA (PRC)

Current information (Y/N): Y

RCS size: SMALL

Orbital parameters

Period: 100.743 minutes

Inclination: 99.1779 deg

SMA: 7171.933 km

Apoapsis: 934.039 km

Periapsis: 653.558 km

RAAN: 21.8886 deg

Eccentricy: 0.01955407

Argument of periapsis: 245.3285 deg

Mean anomaly: 132.9513 deg

Mean motion: 14.29382334 rev/day

Mean motion (dot): 0.00006728 rev/day2

B* drag term: 0.0021625261 1/REarth

Two-line elements (TLE)

Creation date: Aug. 28, 2025, 11:13 p.m.

Reference frame: TEME

Reference center: EARTH

Epoch: Aug. 28, 2025, 8:19 a.m. UTC

TLE line 0: 0 FENGYUN 1C DEB

TLE line 1: 1 29892U 99025GN 25240.34710465 .00006728 00000-0 21625-2 0 9999

TLE line 2: 2 29892 99.1779 21.8886 0195541 245.3285 132.9513 14.29382334951289

Live tracking on map

Real-time ground track for satellite FENGYUN 1C DEB.

In-orbit conjunctions

A list of the most updated potential collisions computed for object FENGYUN 1C DEB.

Target Orbit TCA Probability of collision Miss distance Type
FENGYUN 1C DEB SSO 2024-11-11 08:19:37 0.0006471275 594.0 (m) DEBRIS
FENGYUN 1C DEB SSO 2024-07-23 13:46:48 0.0001881656 176.0 (m) DEBRIS

Associated space launch

Chinese polar orbiting meteorological satellite

FENGYUN 1C DEB was lifted into orbit during the mission ‘Long March 4B | Feng Yun 1C’, on board a Long March 4B space rocket.

The launch took place on May 10, 1999, 1:33 a.m. from Launch Complex 7.

For more information about the launch, click the button.

Launch to space Long March 4B | Feng Yun 1C
Long March 4B | Feng Yun 1C

Agency: N/A

Status: Launch Successful

Launch date: May 10, 1999, 1:33 a.m. UTC

Rocket: Long March 4B

Launch pad: Launch Complex 7

Location: Taiyuan Satellite Launch Center, People's Republic of China

...

Latest news about this satellite

There are no fresh news available about this satellite. Check back as we update our databases every day.


Newsletter sign-up

Weekly statistics, charts and insights to help you stay on top of the space industry.